Home > Weather > Francistown > Past weeks

Flag for Botswana Past Weather in Francistown, Botswana — Yesterday and Last 2 Weeks

Now
59 °F

Clear.


Feels Like: 58 °F
Forecast: 46 / 86 °F
Wind: 8 mph from Southeast

Location: Francistown Airport

Current Time: Jul 31, 2016 at 12:40:19 AM

Latest Report: Jul 30, 2016 at 9:00 PM


Visibility: 10 mi

Pressure: 30.12 "Hg (26.79 "Hg at 989m altitude)

Humidity: 17%

Dew Point: 14 °F

Location of FrancistownLocation

Past Weather in Francistown — Graph

°F

Francistown Temperature Yesterday

Maximum temperature yesterday: 84 °F (at 2:00 PM)
Minimum temperature yesterday: 28 °F (at 6:00 AM)
Average temperature yesterday: 67 °F

High & Low Weather Summary for the Past Weeks

 TemperatureHumidityPressure
High84 °F (Jul 23, 3:00 PM)94% (Jul 26, 6:00 AM)30.45 "Hg (Jul 26, 6:00 AM)
Low27 °F (Jul 29, 6:00 AM)4% (Jul 28, 3:00 PM)29.95 "Hg (Jul 26, 3:00 PM)
Average64 °F31%30.17 "Hg
* Reported Jul 16 6:00 AM — Jul 30 9:00 PM, Francistown, Weather by CustomWeather, © 2016

Note: Actual official high and low records may vary slightly from our data, if they occured in-between our weather recording intervals... More about our weather records

Advertising

Francistown Weather History for the Previous 24 Hours

Scroll right to see more
 ConditionsComfort  
Time TempWeatherWind HumidityBarometerVisibility
9:00 PM
Sat, Jul 30
59 °FClear.8 mph17%30.12 "Hg10 mi
8:00 PM59 °FClear.5 mph17%30.12 "Hg10 mi
7:00 PM66 °FClear.7 mph13%30.09 "Hg10 mi
6:00 PM72 °FClear.7 mph11%30.09 "Hg10 mi
5:00 PM82 °FClear.8 mph8%30.07 "Hg10 mi
4:00 PM84 °FPassing clouds.12 mph7%30.07 "HgN/A
3:00 PM82 °FPassing clouds.10 mph7%30.07 "HgN/A
2:00 PM84 °FPassing clouds.9 mph7%30.09 "HgN/A
1:00 PM82 °FSunny.6 mph6%30.12 "Hg10 mi
12:00 PM81 °FSunny.9 mph6%30.12 "Hg10 mi
11:00 AM77 °FSunny.13 mph5%30.15 "Hg10 mi
10:00 AM75 °FSunny.13 mph7%30.18 "Hg10 mi
9:00 AM64 °FSunny.8 mph11%30.18 "Hg10 mi
8:00 AM48 °FSunny.3 mph17%30.18 "Hg10 mi
7:00 AM30 °FSunny.3 mph34%30.15 "Hg10 mi
6:00 AM28 °FSunny.2 mph47%30.15 "Hg10 mi
Weather by CustomWeather, © 2016

See weather overviewHow to use our weather pages